M I D A S
Marine Information and Data Acquisition System
Tripno 2104 of the Zeeleeuw from 2011-05-17 06:26:39 to 2011-05-17 15:57:41
Back to CruiseResearch ActivitiesStationsMapUnderway DataData graphs

EquipmentUnitsComments
TimeDGPSUTC
LatitudeDGPSDM.mWGS84
LongitudeDGPSDM.mWGS84
SpeedMeteo Stationm/sRelative wind speed
DirectionMeteo StationdegRelative wind direction
TemperatureMeteo Stationdeg CelciusAir temperature
PressureMeteo StationPaAtmospheric pressure
HumidityMeteo Station%Relative humidity
Missing or incorrect values are displayed as -999
Metereological data collected by the RV Zeeleeuw from 2011-05-17 06:31:10 to 2011-05-17 15:59:54
Time Latitude Longitude Speed Direction Temperature Pressure Humidity
2011-05-17 06:32 51°13.62 2°56.051 -999 35 12.8 102070 38
2011-05-17 06:33 51°13.619 2°56.061 -999 35 12.8 102080 38
2011-05-17 06:34 51°13.615 2°56.068 -999 43 12.8 102080 38
2011-05-17 06:35 51°13.614 2°56.07 -999 35 12.8 102080 38
2011-05-17 06:36 51°13.613 2°56.069 -999 35 12.7 102090 38
2011-05-17 06:37 51°13.625 2°56.022 4.6 32 12.8 102080 38
2011-05-17 06:38 51°13.645 2°55.944 4.1 37 12.9 102090 37
2011-05-17 06:39 51°13.658 2°55.902 2.7 49 12.9 102080 39
2011-05-17 06:40 51°13.683 2°55.841 4.1 32 12.9 102080 39
2011-05-17 06:41 51°13.704 2°55.775 5.6 31 12.9 102080 37
2011-05-17 06:42 51°13.711 2°55.742 2.8 31 12.8 102080 38
2011-05-17 06:43 51°13.707 2°55.73 4.7 37 12.8 102090 39
2011-05-17 06:44 51°13.7 2°55.735 4.5 260 12.8 102090 38
2011-05-17 06:45 51°13.72 2°55.72 6.2 242 12.8 102090 38
2011-05-17 06:46 51°13.806 2°55.651 4 31 12.8 102090 38
2011-05-17 06:47 51°13.923 2°55.567 5.6 36 12.8 102080 38
2011-05-17 06:48 51°14.045 2°55.48 9.1 243 12.8 102090 39
2011-05-17 06:49 51°14.168 2°55.387 8.9 33 12.8 102080 38
2011-05-17 06:50 51°14.305 2°55.261 5.3 234 12.8 102070 39
2011-05-17 06:51 51°14.455 2°55.115 6.1 238 12.7 102060 38
2011-05-17 06:52 51°14.602 2°54.928 6.1 240 12.7 102030 38
2011-05-17 06:53 51°14.759 2°54.739 6.2 33 12.7 102030 39
2011-05-17 06:54 51°14.927 2°54.543 13.5 238 12.7 102020 39
2011-05-17 06:55 51°15.081 2°54.342 13.9 36 12.7 102040 39
2011-05-17 06:56 51°15.236 2°54.117 6.8 35 12.7 102020 40
2011-05-17 06:57 51°15.391 2°53.912 13.3 33 12.6 102020 39
2011-05-17 06:58 51°15.555 2°53.702 6.6 233 12.6 102030 39
2011-05-17 06:59 51°15.727 2°53.517 5.8 239 12.6 102030 39
2011-05-17 07:00 51°15.906 2°53.353 6.6 238 12.6 102030 39
2011-05-17 07:01 51°16.08 2°53.182 12.5 33 12.6 102040 39
2011-05-17 07:02 51°16.253 2°53.02 6.1 239 12.6 102030 40
2011-05-17 07:03 51°16.439 2°52.89 11.5 31 12.6 102040 40
2011-05-17 07:04 51°16.624 2°52.761 11.9 236 12.6 102040 40
2011-05-17 07:05 51°16.805 2°52.636 11.2 241 12.6 102040 39
2011-05-17 07:06 51°16.991 2°52.579 10.4 246 12.6 102040 39
2011-05-17 07:07 51°17.187 2°52.526 9.6 240 12.5 102050 40
2011-05-17 07:08 51°17.37 2°52.521 8 252 12.5 102040 39
2011-05-17 07:09 51°17.54 2°52.639 7.7 255 12.6 102070 39
2011-05-17 07:10 51°17.706 2°52.792 6.4 259 12.6 102070 40
2011-05-17 07:11 51°17.849 2°52.981 4 263 12.6 102070 40
2011-05-17 07:12 51°18.004 2°53.174 7.1 258 12.6 102070 40
2011-05-17 07:13 51°18.147 2°53.361 6.2 259 12.6 102060 38
2011-05-17 07:14 51°18.295 2°53.546 5.5 260 12.6 102070 40
2011-05-17 07:15 51°18.443 2°53.722 5.2 260 12.6 102070 40
2011-05-17 07:16 51°18.575 2°53.956 2.9 265 12.6 102070 39
2011-05-17 07:17 51°18.7 2°54.178 2.9 267 12.6 102070 38
2011-05-17 07:18 51°18.821 2°54.402 -999 263 12.6 102080 39
2011-05-17 07:19 51°18.926 2°54.663 0.2 31 12.7 102070 38
2011-05-17 07:20 51°19.011 2°54.924 0.1 40 12.6 102070 39
2011-05-17 07:21 51°19.098 2°55.191 -999 35 12.6 102080 40
2011-05-17 07:22 51°19.181 2°55.453 -999 270 12.6 102080 39
2011-05-17 07:23 51°19.275 2°55.725 -999 268 12.6 102080 39
2011-05-17 07:24 51°19.36 2°55.987 2.1 40 12.7 102080 39
2011-05-17 07:25 51°19.45 2°56.239 2.7 32 12.7 102070 39
2011-05-17 07:26 51°19.513 2°56.519 0.8 31 12.6 102080 40
2011-05-17 07:27 51°19.55 2°56.819 0.1 35 12.6 102070 39
2011-05-17 07:28 51°19.589 2°57.107 -999 35 12.7 102070 39
2011-05-17 07:29 51°19.636 2°57.384 -999 35 12.8 102070 39
2011-05-17 07:30 51°19.694 2°57.672 -999 36 12.8 102070 39
2011-05-17 07:31 51°19.74 2°57.965 -999 35 12.9 102070 39
2011-05-17 07:32 51°19.783 2°58.268 0.1 32 12.8 102070 39
2011-05-17 07:33 51°19.826 2°58.556 0.1 35 12.9 102070 39
2011-05-17 07:34 51°19.879 2°58.834 0.2 38 12.9 102080 39
2011-05-17 07:35 51°19.92 2°59.116 0.1 36 13 102070 38
2011-05-17 07:36 51°19.972 2°59.4 -999 35 13 102060 39
2011-05-17 07:37 51°20.019 2°59.684 -999 35 13 102060 39
2011-05-17 07:38 51°20.075 2°59.947 -999 270 13.1 102060 39
2011-05-17 07:39 51°20.115 3°0.231 0.1 34 13.2 102060 40
2011-05-17 07:40 51°20.175 3°0.489 1.5 39 13.2 102060 39
2011-05-17 07:41 51°20.239 3°0.762 1.7 35 13.1 102070 39
2011-05-17 07:42 51°20.307 3°1.025 -999 36 13.1 102070 39
2011-05-17 07:43 51°20.371 3°1.289 -999 35 13.2 102070 39
2011-05-17 07:44 51°20.428 3°1.562 -999 35 13.3 102060 39
2011-05-17 07:45 51°20.491 3°1.838 -999 35 13.3 102070 40
2011-05-17 07:46 51°20.548 3°2.115 -999 21 13.4 102060 40
2011-05-17 07:47 51°20.614 3°2.378 -999 35 13.4 102060 40
2011-05-17 07:48 51°20.7 3°2.637 -999 35 13.3 102060 39
2011-05-17 07:49 51°20.778 3°2.9 -999 35 13.2 102060 39
2011-05-17 07:50 51°20.854 3°3.177 -999 35 13.1 102060 39
2011-05-17 07:51 51°20.936 3°3.447 -999 35 13 102060 39
2011-05-17 07:52 51°21.01 3°3.72 -999 37 12.9 102060 39
2011-05-17 07:53 51°21.088 3°3.988 -999 35 13 102050 39
2011-05-17 07:54 51°21.164 3°4.258 -999 42 13.1 102060 39
2011-05-17 07:55 51°21.245 3°4.54 -999 35 13.2 102050 39
2011-05-17 07:56 51°21.331 3°4.804 -999 35 13.2 102050 39
2011-05-17 07:57 51°21.418 3°5.074 -999 269 13 102060 39
2011-05-17 07:58 51°21.495 3°5.342 -999 264 13.2 102050 40
2011-05-17 07:59 51°21.573 3°5.625 -999 264 13.2 102050 39
2011-05-17 08:00 51°21.651 3°5.894 0.1 269 13.2 102050 39
2011-05-17 08:01 51°21.719 3°6.176 -999 35 13.2 102050 39
2011-05-17 08:02 51°21.774 3°6.461 -999 38 13.3 102060 39
2011-05-17 08:03 51°21.831 3°6.749 0.1 36 13.4 102050 39
2011-05-17 08:04 51°21.893 3°7.032 -999 37 13.5 102050 40
2011-05-17 08:05 51°21.923 3°7.216 -999 35 13.6 102050 40
2011-05-17 08:06 51°21.916 3°7.329 6.9 42 13.5 102050 38
2011-05-17 08:07 51°21.87 3°7.407 5.5 26 13.3 102050 39
2011-05-17 08:08 51°21.795 3°7.492 6.7 21 13.3 102050 40
2011-05-17 08:09 51°21.722 3°7.527 8.5 9 13.2 102050 40
2011-05-17 08:10 51°21.659 3°7.526 5.2 4 13.1 102030 39
2011-05-17 08:11 51°21.597 3°7.507 6.2 5 12.9 102040 40
2011-05-17 08:12 51°21.54 3°7.476 8 359 12.8 102030 39
2011-05-17 08:13 51°21.486 3°7.435 7.6 353 12.7 102030 40
2011-05-17 08:14 51°21.438 3°7.389 8.5 344 12.7 102040 40
2011-05-17 08:15 51°21.393 3°7.332 8.4 342 12.7 102040 40
2011-05-17 08:16 51°21.353 3°7.261 8.5 335 12.7 102040 39
2011-05-17 08:17 51°21.32 3°7.179 7.7 332 12.7 102050 40
2011-05-17 08:18 51°21.292 3°7.092 4.4 329 12.7 102050 39
2011-05-17 08:19 51°21.263 3°7.001 7.3 326 12.8 102050 40
2011-05-17 08:20 51°21.235 3°6.914 8.2 329 12.9 102050 40
2011-05-17 08:21 51°21.211 3°6.823 9.5 329 13 102050 40
2011-05-17 08:22 51°21.185 3°6.736 7.6 326 13 102050 40
2011-05-17 08:23 51°21.162 3°6.649 4.8 323 13 102040 40
2011-05-17 08:24 51°21.137 3°6.559 8.7 320 13 102050 38
2011-05-17 08:25 51°21.121 3°6.467 3.9 323 13 102040 40
2011-05-17 08:26 51°21.107 3°6.37 4.3 324 13 102040 39
2011-05-17 08:27 51°21.097 3°6.279 4.6 318 13 102040 39
2011-05-17 08:28 51°21.084 3°6.185 7.4 322 13 102030 40
2011-05-17 08:29 51°21.068 3°6.09 4.3 325 13 102040 40
2011-05-17 08:30 51°21.051 3°5.999 4.7 325 13 102040 39
2011-05-17 08:31 51°21.032 3°5.906 9.2 322 12.9 102050 40
2011-05-17 08:32 51°21.024 3°5.809 8.3 32 13 102030 39
2011-05-17 08:33 51°21.024 3°5.713 5 31 13 102030 39
2011-05-17 08:34 51°21.033 3°5.622 8 32 13 102030 39
2011-05-17 08:35 51°21.059 3°5.547 8.2 240 12.9 102030 40
2011-05-17 08:36 51°21.103 3°5.466 8.7 242 12.9 102020 39
2011-05-17 08:37 51°21.159 3°5.389 4.5 247 12.9 102040 39
2011-05-17 08:38 51°21.223 3°5.332 7.7 251 13 102040 39
2011-05-17 08:39 51°21.289 3°5.274 8.8 256 13.1 102040 40
2011-05-17 08:40 51°21.356 3°5.239 7.5 255 13.2 102050 40
2011-05-17 08:41 51°21.42 3°5.238 4.5 263 13.1 102060 39
2011-05-17 08:42 51°21.469 3°5.289 4.5 36 13.2 102060 39
2011-05-17 08:43 51°21.482 3°5.387 4.2 36 13.2 102060 40
2011-05-17 08:44 51°21.48 3°5.492 4.9 43 13.1 102060 38
2011-05-17 08:45 51°21.46 3°5.578 5.5 38 13 102070 39
2011-05-17 08:46 51°21.433 3°5.649 8.5 35 12.9 102060 40
2011-05-17 08:47 51°21.39 3°5.705 6.9 25 13 102070 39
2011-05-17 08:48 51°21.345 3°5.737 7.7 24 12.9 102070 39
2011-05-17 08:49 51°21.302 3°5.751 6.9 20 12.9 102070 39
2011-05-17 08:50 51°21.26 3°5.756 6.9 17 12.9 102080 40
2011-05-17 08:51 51°21.215 3°5.756 7.7 -999 12.8 102070 40
2011-05-17 08:52 51°21.135 3°5.693 8.9 346 12.8 102040 40
2011-05-17 08:53 51°21.089 3°5.621 8.3 343 12.8 102050 41
2011-05-17 08:54 51°21.06 3°5.579 7.3 347 12.8 102050 40
2011-05-17 08:55 51°21.038 3°5.556 6.2 347 12.8 102060 40
2011-05-17 08:56 51°21.004 3°5.507 5.2 334 12.8 102060 40
2011-05-17 08:57 51°20.961 3°5.38 5.3 333 12.7 102060 40
2011-05-17 08:58 51°20.914 3°5.258 9.8 334 12.7 102060 39
2011-05-17 08:59 51°20.892 3°5.19 8.4 324 12.8 102070 40
2011-05-17 09:00 51°20.881 3°5.152 6.7 37 12.8 102060 39
2011-05-17 09:01 51°20.874 3°5.134 7.2 32 13 102060 40
2011-05-17 09:02 51°20.884 3°5.109 7 261 13.1 102060 40
2011-05-17 09:03 51°20.912 3°5.119 5.8 32 13.1 102080 40
2011-05-17 09:04 51°20.917 3°5.181 0.1 35 13.1 102080 39
2011-05-17 09:05 51°20.93 3°5.278 4 37 13 102080 39
2011-05-17 09:06 51°20.958 3°5.388 4.7 33 13.1 102080 40
2011-05-17 09:07 51°20.985 3°5.513 2.4 33 13.1 102080 41
2011-05-17 09:08 51°21.008 3°5.644 3.8 39 13.2 102080 40
2011-05-17 09:09 51°21.031 3°5.778 3.8 33 13.1 102090 39
2011-05-17 09:10 51°21.058 3°5.908 3.6 33 13 102090 38
2011-05-17 09:11 51°21.087 3°6.04 3.9 31 13.1 102090 39
2011-05-17 09:12 51°21.11 3°6.17 4.3 38 13.2 102090 39
2011-05-17 09:13 51°21.133 3°6.302 2.9 36 13 102090 38
2011-05-17 09:14 51°21.161 3°6.432 2.4 38 13.1 102090 41
2011-05-17 09:15 51°21.19 3°6.562 5 33 13.3 102090 40
2011-05-17 09:16 51°21.216 3°6.695 2.4 33 13.2 102090 38
2011-05-17 09:17 51°21.238 3°6.829 3.4 37 13.1 102090 41
2011-05-17 09:18 51°21.262 3°6.966 4.3 38 13.1 102090 39
2011-05-17 09:19 51°21.291 3°7.099 4.8 39 12.9 102090 40
2011-05-17 09:20 51°21.316 3°7.238 2.3 37 12.8 102090 40
2011-05-17 09:21 51°21.323 3°7.379 4.2 37 13 102090 40
2011-05-17 09:22 51°21.33 3°7.528 2.8 39 12.9 102080 39
2011-05-17 09:23 51°21.35 3°7.67 2.6 39 13 102090 41
2011-05-17 09:24 51°21.374 3°7.812 4.7 37 13.3 102090 38
2011-05-17 09:25 51°21.395 3°7.956 2.2 36 13.2 102090 39
2011-05-17 09:26 51°21.412 3°8.104 0.3 39 13.2 102090 40
2011-05-17 09:27 51°21.428 3°8.251 3.4 34 13.2 102090 40
2011-05-17 09:28 51°21.447 3°8.396 -999 35 13.2 102090 39
2011-05-17 09:29 51°21.472 3°8.547 1.4 33 13.4 102090 40
2011-05-17 09:30 51°21.497 3°8.691 0.7 37 13.1 102090 38
2011-05-17 09:31 51°21.517 3°8.843 1.2 33 13.2 102090 41
2011-05-17 09:32 51°21.535 3°8.992 2.8 39 13.5 102090 39
2011-05-17 09:33 51°21.556 3°9.142 0.9 37 13.7 102090 41
2011-05-17 09:34 51°21.603 3°9.237 6.3 261 13.7 102090 40
2011-05-17 09:35 51°21.656 3°9.237 8.9 246 13.6 102080 40
2011-05-17 09:36 51°21.691 3°9.184 10.1 38 13.6 102080 39
2011-05-17 09:37 51°21.697 3°9.112 4.7 329 13.5 102070 38
2011-05-17 09:38 51°21.674 3°9.033 4.6 330 13.3 102080 39
2011-05-17 09:39 51°21.661 3°8.94 4.2 325 13.2 102070 39
2011-05-17 09:40 51°21.657 3°8.843 7.9 322 13.3 102060 37
2011-05-17 09:41 51°21.653 3°8.746 4.2 321 13.3 102070 39
2011-05-17 09:42 51°21.641 3°8.652 4.9 324 13.3 102070 40
2011-05-17 09:43 51°21.627 3°8.552 4.4 326 13.3 102080 40
2011-05-17 09:44 51°21.615 3°8.452 5.1 326 13.3 102080 40
2011-05-17 09:45 51°21.605 3°8.355 4.4 325 13.2 102070 39
2011-05-17 09:46 51°21.595 3°8.258 4.3 326 13.2 102070 40
2011-05-17 09:47 51°21.58 3°8.162 7.8 327 13.2 102080 39
2011-05-17 09:48 51°21.554 3°8.072 7.7 330 13.1 102080 37
2011-05-17 09:49 51°21.528 3°7.983 4.4 332 13.2 102080 39
2011-05-17 09:50 51°21.503 3°7.89 4.3 326 13.2 102080 40
2011-05-17 09:51 51°21.485 3°7.798 8.8 329 13.2 102070 40
2011-05-17 09:52 51°21.464 3°7.7 4.5 328 13.1 102070 39
2011-05-17 09:53 51°21.444 3°7.606 4.3 328 13.1 102070 40
2011-05-17 09:54 51°21.42 3°7.508 4.7 330 13.1 102090 39
2011-05-17 09:55 51°21.393 3°7.418 4.6 330 13.1 102080 40
2011-05-17 09:56 51°21.369 3°7.325 4 325 13.2 102090 38
2011-05-17 09:57 51°21.352 3°7.23 4.3 325 13.2 102070 40
2011-05-17 09:58 51°21.329 3°7.081 5.1 323 13.2 102070 40
2011-05-17 09:59 51°21.367 3°6.825 5.6 32 13.2 102060 40
2011-05-17 10:00 51°21.5 3°6.596 10 35 13.2 102050 39
2011-05-17 10:01 51°21.694 3°6.495 4.2 250 13.1 102060 39
2011-05-17 10:02 51°21.895 3°6.472 8.3 242 13.2 102070 40
2011-05-17 10:03 51°22.1 3°6.465 6.9 31 13.2 102060 40
2011-05-17 10:04 51°22.305 3°6.499 4.1 308 13.2 102070 38
2011-05-17 10:05 51°22.509 3°6.553 9.2 244 13.2 102070 39
2011-05-17 10:06 51°22.712 3°6.611 7 246 13.2 102070 40
2011-05-17 10:07 51°22.923 3°6.685 5.9 243 13.3 102070 40
2011-05-17 10:08 51°23.116 3°6.807 5.6 247 13.4 102070 40
2011-05-17 10:09 51°23.313 3°6.929 5.7 247 13.4 102070 39
2011-05-17 10:10 51°23.511 3°7.041 6.3 244 13.4 102070 40
2011-05-17 10:11 51°23.712 3°7.117 7.7 237 13.3 102070 39
2011-05-17 10:12 51°23.925 3°7.16 8.4 244 13.3 102060 38
2011-05-17 10:13 51°24.124 3°7.151 6.4 308 13.3 102060 39
2011-05-17 10:14 51°24.264 3°7.137 8.3 244 13.4 102060 40
2011-05-17 10:15 51°24.337 3°7.1 10.2 241 13.4 102050 40
2011-05-17 10:16 51°24.374 3°7.047 8.9 233 13.4 102050 39
2011-05-17 10:17 51°24.395 3°6.991 7.3 34 13.3 102050 39
2011-05-17 10:18 51°24.41 3°6.931 6.6 36 13.3 102050 40
2011-05-17 10:19 51°24.422 3°6.869 8.5 316 13.3 102050 40
2011-05-17 10:20 51°24.437 3°6.819 6.9 38 13.2 102050 38
2011-05-17 10:21 51°24.452 3°6.763 4.3 37 13.3 102050 40
2011-05-17 10:22 51°24.472 3°6.706 8.4 35 13.2 102040 40
2011-05-17 10:23 51°24.488 3°6.646 7.2 35 13.2 102050 39
2011-05-17 10:24 51°24.499 3°6.585 7.7 37 13.1 102050 40
2011-05-17 10:25 51°24.505 3°6.524 7.8 33 13.1 102050 39
2011-05-17 10:26 51°24.51 3°6.462 8.1 316 13.1 102040 39
2011-05-17 10:27 51°24.517 3°6.405 8.1 34 13 102050 40
2011-05-17 10:28 51°24.526 3°6.347 7.8 36 13.1 102040 37
2011-05-17 10:29 51°24.535 3°6.291 4.1 317 13.2 102050 40
2011-05-17 10:30 51°24.543 3°6.233 3.9 318 13.1 102050 40
2011-05-17 10:31 51°24.551 3°6.177 4 38 13.1 102050 39
2011-05-17 10:32 51°24.56 3°6.119 4.4 36 13 102050 40
2011-05-17 10:33 51°24.568 3°6.06 7.6 306 13.1 102040 39
2011-05-17 10:34 51°24.576 3°6.001 7.4 316 13.1 102050 40
2011-05-17 10:35 51°24.587 3°5.944 4.2 34 13.2 102050 40
2011-05-17 10:36 51°24.601 3°5.89 9.3 33 13.1 102050 37
2011-05-17 10:37 51°24.612 3°5.833 7.7 315 13.1 102040 40
2011-05-17 10:38 51°24.621 3°5.781 8 32 13 102050 39
2011-05-17 10:39 51°24.63 3°5.73 9.7 32 13.1 102050 40
2011-05-17 10:40 51°24.638 3°5.679 7.7 39 13 102040 40
2011-05-17 10:41 51°24.65 3°5.63 7.3 39 13 102050 38
2011-05-17 10:42 51°24.66 3°5.58 8.6 37 13 102050 39
2011-05-17 10:43 51°24.674 3°5.534 7.8 36 13 102040 39
2011-05-17 10:44 51°24.687 3°5.482 7.9 315 13 102040 37
2011-05-17 10:45 51°24.698 3°5.432 7.9 37 13 102040 40
2011-05-17 10:46 51°24.71 3°5.379 4.2 316 13.1 102030 40
2011-05-17 10:47 51°24.722 3°5.328 8.3 33 13.1 102030 40
2011-05-17 10:48 51°24.734 3°5.275 8.4 33 13.1 102040 40
2011-05-17 10:49 51°24.746 3°5.228 4.3 37 13.2 102020 40
2011-05-17 10:50 51°24.759 3°5.181 8.2 31 13.1 102030 40
2011-05-17 10:51 51°24.776 3°5.136 8.8 35 13.1 102030 40
2011-05-17 10:52 51°24.793 3°5.091 7.4 316 13 102030 40
2011-05-17 10:53 51°24.809 3°5.046 9.1 318 13.1 102020 39
2011-05-17 10:54 51°24.824 3°5 8.8 316 13.2 102020 39
2011-05-17 10:55 51°24.841 3°4.958 8.7 316 13.2 102020 39
2011-05-17 10:56 51°24.861 3°4.917 7.3 34 13.2 102020 39
2011-05-17 10:57 51°24.887 3°4.875 4 31 13.2 102010 39
2011-05-17 10:58 51°24.915 3°4.836 7.1 35 13.2 102010 40
2011-05-17 10:59 51°24.941 3°4.795 7.3 38 13.2 102020 40
2011-05-17 11:00 51°24.965 3°4.746 8.7 39 13.2 102010 40
2011-05-17 11:01 51°24.995 3°4.686 8.9 33 13.2 102010 39
2011-05-17 11:02 51°25.02 3°4.625 4.4 316 13.1 102010 39
2011-05-17 11:03 51°25.039 3°4.576 7.7 315 13.2 102020 40
2011-05-17 11:04 51°25.055 3°4.518 4.6 320 13.1 102010 40
2011-05-17 11:05 51°25.066 3°4.456 8.9 320 13.2 102020 39
2011-05-17 11:06 51°25.1 3°4.396 9 34 13.3 102010 40
2011-05-17 11:07 51°25.162 3°4.371 3.7 243 13.3 102020 39
2011-05-17 11:08 51°25.244 3°4.381 8.1 253 13.4 102030 40
2011-05-17 11:09 51°25.331 3°4.429 7.5 261 13.5 102030 39
2011-05-17 11:10 51°25.409 3°4.53 5.4 37 13.4 102030 40
2011-05-17 11:11 51°25.424 3°4.686 6.4 29 13.3 102030 38
2011-05-17 11:12 51°25.384 3°4.815 5.6 23 13.3 102020 39
2011-05-17 11:13 51°25.333 3°4.981 6.5 23 13.4 102020 40
2011-05-17 11:14 51°25.281 3°5.16 6.1 23 13.3 102030 39
2011-05-17 11:15 51°25.229 3°5.342 6.2 21 13.4 102020 39
2011-05-17 11:16 51°25.173 3°5.521 5.3 26 13.3 102020 40
2011-05-17 11:17 51°25.116 3°5.693 7.3 18 13.3 102030 39
2011-05-17 11:18 51°25.057 3°5.867 5.9 21 13.3 102020 39
2011-05-17 11:19 51°25.001 3°6.054 6.2 22 13.3 102020 41
2011-05-17 11:20 51°24.947 3°6.233 5.7 25 13.3 102020 40
2011-05-17 11:21 51°24.89 3°6.412 6.6 18 13.3 102030 41
2011-05-17 11:22 51°24.836 3°6.582 6.6 21 13.4 102020 41
2011-05-17 11:23 51°24.792 3°6.737 5.2 24 13.3 102030 39
2011-05-17 11:24 51°24.748 3°6.892 6.5 22 13.3 102030 39
2011-05-17 11:25 51°24.705 3°7.043 5.8 26 13.4 102030 40
2011-05-17 11:26 51°24.662 3°7.197 5.7 29 13.3 102020 39
2011-05-17 11:27 51°24.619 3°7.38 4.3 41 13.3 102030 39
2011-05-17 11:28 51°24.672 3°7.597 4.4 259 13.3 102030 40
2011-05-17 11:29 51°24.802 3°7.658 8.2 242 13.4 102030 41
2011-05-17 11:30 51°24.995 3°7.647 4.5 237 13.5 102020 40
2011-05-17 11:31 51°25.216 3°7.634 4.4 33 13.5 102000 40
2011-05-17 11:32 51°25.427 3°7.627 8.9 239 13.5 102010 38
2011-05-17 11:33 51°25.654 3°7.629 4.9 239 13.6 102010 40
2011-05-17 11:34 51°25.871 3°7.625 9.7 240 13.6 102020 39
2011-05-17 11:35 51°26.094 3°7.617 8.6 242 13.6 102010 40
2011-05-17 11:36 51°26.31 3°7.616 9 240 13.6 102010 40
2011-05-17 11:37 51°26.532 3°7.614 4.5 239 13.6 102000 40
2011-05-17 11:38 51°26.741 3°7.546 5.6 234 13.6 102000 40
2011-05-17 11:39 51°26.941 3°7.452 5.7 234 13.5 101990 39
2011-05-17 11:40 51°27.153 3°7.362 4.4 36 13.6 102010 37
2011-05-17 11:41 51°27.351 3°7.286 8.8 238 13.5 102000 40
2011-05-17 11:42 51°27.423 3°7.21 5 328 13.5 102000 40
2011-05-17 11:43 51°27.388 3°7.192 9.4 351 13.4 102000 39
2011-05-17 11:44 51°27.322 3°7.154 9.4 336 13.3 102000 40
2011-05-17 11:45 51°27.301 3°7.106 9.9 331 13.3 102010 40
2011-05-17 11:46 51°27.285 3°7.063 10.3 335 13.3 102010 40
2011-05-17 11:47 51°27.259 3°7.013 9.9 332 13.3 102010 41
2011-05-17 11:48 51°27.242 3°6.944 9.9 330 13.4 102000 38
2011-05-17 11:49 51°27.211 3°6.89 7.7 346 13.4 102010 41
2011-05-17 11:50 51°27.169 3°6.855 10.3 337 13.3 102000 39
2011-05-17 11:51 51°27.151 3°6.791 10.7 335 13.3 102010 40
2011-05-17 11:52 51°27.131 3°6.723 9.5 334 13.3 102010 39
2011-05-17 11:53 51°27.109 3°6.652 10.3 332 13.4 102020 40
2011-05-17 11:54 51°27.09 3°6.58 8.8 334 13.5 102010 41
2011-05-17 11:55 51°27.072 3°6.501 9.5 333 13.5 102020 40
2011-05-17 11:56 51°27.057 3°6.423 4.9 333 13.5 102010 39
2011-05-17 11:57 51°27.042 3°6.344 8.9 330 13.5 102010 41
2011-05-17 11:58 51°27.025 3°6.265 9.4 338 13.5 102010 40
2011-05-17 11:59 51°27.006 3°6.192 11 336 13.5 102010 39
2011-05-17 12:00 51°26.991 3°6.115 9.3 333 13.5 102010 40
2011-05-17 12:01 51°26.979 3°6.036 9.1 333 13.5 102010 40
2011-05-17 12:02 51°26.969 3°5.962 8.6 333 13.5 102010 40
2011-05-17 12:03 51°26.973 3°5.888 4.6 319 13.6 102010 39
2011-05-17 12:04 51°27.023 3°5.831 9 236 13.5 102000 38
2011-05-17 12:05 51°27.088 3°5.784 8 243 13.6 102010 39
2011-05-17 12:06 51°27.167 3°5.763 9.4 253 13.7 102010 40
2011-05-17 12:07 51°27.254 3°5.81 6.9 36 13.7 102030 41
2011-05-17 12:08 51°27.318 3°5.926 4.3 37 13.7 102040 41
2011-05-17 12:09 51°27.34 3°6.07 5.4 40 13.6 102030 39
2011-05-17 12:10 51°27.347 3°6.196 6.9 39 13.6 102020 40
2011-05-17 12:11 51°27.351 3°6.307 7.2 35 13.5 102020 39
2011-05-17 12:12 51°27.353 3°6.419 7.9 36 13.4 102020 39
2011-05-17 12:13 51°27.35 3°6.526 7 32 13.4 102020 39
2011-05-17 12:14 51°27.35 3°6.634 7 36 13.4 102020 41
2011-05-17 12:15 51°27.356 3°6.744 7.4 44 13.4 102010 40
2011-05-17 12:16 51°27.372 3°6.857 4.6 39 13.3 102020 39
2011-05-17 12:17 51°27.401 3°6.961 6.7 38 13.5 102030 42
2011-05-17 12:18 51°27.44 3°7.063 4.8 34 13.5 102040 41
2011-05-17 12:19 51°27.481 3°7.163 5.6 35 13.5 102040 41
2011-05-17 12:20 51°27.512 3°7.267 -999 35 13.5 102030 39
2011-05-17 12:21 51°27.531 3°7.371 5.8 42 13.5 102020 41
2011-05-17 12:22 51°27.54 3°7.472 6.5 34 13.5 102020 41
2011-05-17 12:23 51°27.54 3°7.565 4.4 31 13.4 102020 40
2011-05-17 12:24 51°27.531 3°7.648 9 26 13.3 102010 41
2011-05-17 12:25 51°27.517 3°7.722 7.4 19 13.3 102010 41
2011-05-17 12:26 51°27.509 3°7.782 7.3 17 13.3 102020 41
2011-05-17 12:27 51°27.51 3°7.834 7.4 18 13.4 102020 41
2011-05-17 12:28 51°27.517 3°7.882 6.7 17 13.4 102020 40
2011-05-17 12:29 51°27.528 3°7.928 7.4 15 13.4 102010 41
2011-05-17 12:30 51°27.543 3°7.975 8.7 17 13.5 102020 40
2011-05-17 12:31 51°27.559 3°8.023 7.5 18 13.4 102020 41
2011-05-17 12:32 51°27.569 3°8.073 7.6 22 13.3 102020 41
2011-05-17 12:33 51°27.546 3°8.167 7.3 26 13.4 102020 40
2011-05-17 12:34 51°27.496 3°8.283 8.6 16 13.4 102020 41
2011-05-17 12:35 51°27.427 3°8.346 8 1 13.4 102010 40
2011-05-17 12:36 51°27.363 3°8.329 10.1 350 13.5 102010 40
2011-05-17 12:37 51°27.307 3°8.287 9.7 346 13.3 102010 40
2011-05-17 12:38 51°27.267 3°8.211 10.9 337 13.3 102030 40
2011-05-17 12:39 51°27.24 3°8.121 9.5 337 13.4 102020 41
2011-05-17 12:40 51°27.234 3°8.013 9.8 331 13.5 102020 40
2011-05-17 12:41 51°27.238 3°7.898 10 330 13.6 102020 41
2011-05-17 12:42 51°27.242 3°7.78 11.4 328 13.7 102020 41
2011-05-17 12:43 51°27.247 3°7.665 11.6 326 13.6 102010 40
2011-05-17 12:44 51°27.255 3°7.546 5.1 326 13.7 102000 38
2011-05-17 12:45 51°27.267 3°7.428 4.4 325 13.7 102010 39
2011-05-17 12:46 51°27.279 3°7.308 10.4 326 13.9 102010 41
2011-05-17 12:47 51°27.286 3°7.192 10.1 330 13.8 102010 39
2011-05-17 12:48 51°27.279 3°7.075 10.6 331 13.9 102020 40
2011-05-17 12:49 51°27.277 3°6.96 8.4 327 13.8 102020 39
2011-05-17 12:50 51°27.28 3°6.84 9.2 328 13.8 102010 41
2011-05-17 12:51 51°27.282 3°6.719 10 331 13.8 102010 41
2011-05-17 12:52 51°27.279 3°6.6 11.7 330 13.8 102020 39
2011-05-17 12:53 51°27.276 3°6.484 10.1 331 13.8 102020 40
2011-05-17 12:54 51°27.281 3°6.358 4.6 328 13.8 102010 41
2011-05-17 12:55 51°27.284 3°6.238 4.6 328 13.8 102010 40
2011-05-17 12:56 51°27.272 3°6.123 7.9 335 13.8 102010 40
2011-05-17 12:57 51°27.251 3°6.013 9.4 333 13.9 102020 41
2011-05-17 12:58 51°27.23 3°5.898 9.9 334 13.9 102020 41
2011-05-17 12:59 51°27.211 3°5.783 9.9 334 13.9 102020 41
2011-05-17 13:00 51°27.195 3°5.669 10.5 332 13.9 102020 39
2011-05-17 13:01 51°27.182 3°5.554 10.4 328 13.9 102030 41
2011-05-17 13:02 51°27.203 3°5.434 10.6 34 13.9 102010 39
2011-05-17 13:03 51°27.286 3°5.365 9.5 252 13.9 102010 40
2011-05-17 13:04 51°27.39 3°5.416 6.1 37 13.9 102040 39
2011-05-17 13:05 51°27.446 3°5.564 4.6 44 13.9 102040 40
2011-05-17 13:06 51°27.447 3°5.707 5.7 32 13.8 102030 39
2011-05-17 13:07 51°27.439 3°5.85 5.1 35 13.8 102030 40
2011-05-17 13:08 51°27.431 3°5.999 6.2 35 13.8 102030 38
2011-05-17 13:09 51°27.423 3°6.144 7.1 34 13.7 102030 40
2011-05-17 13:10 51°27.414 3°6.299 6.6 35 13.8 102040 40
2011-05-17 13:11 51°27.411 3°6.451 4.6 37 13.7 102030 39
2011-05-17 13:12 51°27.469 3°6.677 0.1 262 13.7 102040 40
2011-05-17 13:13 51°27.648 3°6.799 9.1 248 13.8 102030 40
2011-05-17 13:14 51°27.862 3°6.767 11.6 36 13.8 102010 41
2011-05-17 13:15 51°28.004 3°6.533 6.6 318 13.8 102010 40
2011-05-17 13:16 51°28.098 3°6.244 6.3 321 13.8 102000 38
2011-05-17 13:17 51°28.188 3°5.955 6.3 320 13.9 102000 41
2011-05-17 13:18 51°28.232 3°5.655 7.3 328 14 102000 40
2011-05-17 13:19 51°28.24 3°5.347 6.8 324 13.9 102000 40
2011-05-17 13:20 51°28.269 3°5.041 6.3 324 14 102010 40
2011-05-17 13:21 51°28.3 3°4.736 12.5 325 14 102000 40
2011-05-17 13:22 51°28.325 3°4.436 13 326 13.9 102010 40
2011-05-17 13:23 51°28.351 3°4.125 14.2 327 13.9 102000 40
2011-05-17 13:24 51°28.379 3°3.82 14.5 324 13.9 102000 39
2011-05-17 13:25 51°28.415 3°3.519 13.5 327 13.8 102000 40
2011-05-17 13:26 51°28.436 3°3.223 11.3 325 13.9 102000 40
2011-05-17 13:27 51°28.47 3°2.917 10.9 326 13.9 102000 41
2011-05-17 13:28 51°28.497 3°2.615 7.4 325 13.8 102000 39
2011-05-17 13:29 51°28.524 3°2.313 13.2 324 13.8 101990 40
2011-05-17 13:30 51°28.557 3°2.004 12.2 325 13.8 102010 40
2011-05-17 13:31 51°28.579 3°1.71 14.2 325 13.8 102000 40
2011-05-17 13:32 51°28.607 3°1.399 6.9 324 13.8 102000 39
2011-05-17 13:33 51°28.637 3°1.093 13.1 323 13.8 101990 41
2011-05-17 13:34 51°28.666 3°0.785 11.6 324 13.8 102000 40
2011-05-17 13:35 51°28.691 3°0.473 12.1 325 13.7 101990 39
2011-05-17 13:36 51°28.711 3°0.176 6.7 325 13.8 102000 40
2011-05-17 13:37 51°28.744 2°59.867 6.2 322 13.7 101990 40
2011-05-17 13:38 51°28.802 2°59.575 6.4 323 13.6 101990 41
2011-05-17 13:39 51°28.834 2°59.277 2.6 323 13.7 102000 40
2011-05-17 13:40 51°28.866 2°59.051 8.3 322 13.7 102000 39
2011-05-17 13:41 51°28.901 2°58.955 8.8 324 13.7 102010 40
2011-05-17 13:42 51°28.93 2°58.916 9.1 323 13.7 102020 41
2011-05-17 13:43 51°28.959 2°58.904 7.3 318 13.7 102020 41
2011-05-17 13:44 51°28.989 2°58.904 10.4 318 13.7 102010 40
2011-05-17 13:45 51°29.02 2°58.893 9.8 318 13.6 102010 41
2011-05-17 13:46 51°29.05 2°58.871 8 324 13.6 102010 39
2011-05-17 13:47 51°29.075 2°58.843 8.7 318 13.6 102010 40
2011-05-17 13:48 51°29.1 2°58.811 4.7 318 13.6 102010 39
2011-05-17 13:49 51°29.131 2°58.777 4.3 316 13.6 102010 41
2011-05-17 13:50 51°29.163 2°58.74 8 319 13.7 102010 41
2011-05-17 13:51 51°29.192 2°58.701 10.6 321 13.8 102010 40
2011-05-17 13:52 51°29.218 2°58.663 4.7 320 13.8 102020 40
2011-05-17 13:53 51°29.243 2°58.623 4.7 321 13.7 102010 41
2011-05-17 13:54 51°29.275 2°58.586 7.9 319 13.7 102010 41
2011-05-17 13:55 51°29.307 2°58.547 4.3 318 13.7 102010 41
2011-05-17 13:56 51°29.341 2°58.511 4.6 320 13.6 102010 39
2011-05-17 13:57 51°29.365 2°58.475 4.4 328 13.6 102010 41
2011-05-17 13:58 51°29.365 2°58.446 8.3 346 13.6 102010 41
2011-05-17 13:59 51°29.327 2°58.405 9 339 13.6 102000 40
2011-05-17 14:00 51°29.283 2°58.342 9 340 13.6 102000 41
2011-05-17 14:01 51°29.241 2°58.265 9.8 340 13.5 101990 41
2011-05-17 14:02 51°29.192 2°58.213 10.6 349 13.5 101980 40
2011-05-17 14:03 51°29.133 2°58.2 7.5 349 13.3 101990 41
2011-05-17 14:04 51°29.073 2°58.19 7.3 350 13.3 102000 39
2011-05-17 14:05 51°29.016 2°58.178 9.6 349 13.2 101980 40
2011-05-17 14:06 51°28.958 2°58.155 7.8 349 13.2 101990 40
2011-05-17 14:07 51°28.902 2°58.128 10.6 347 13.2 102000 41
2011-05-17 14:08 51°28.844 2°58.108 13.6 350 13.1 101980 41
2011-05-17 14:09 51°28.784 2°58.097 10.3 349 13 101980 40
2011-05-17 14:10 51°28.72 2°58.102 7.6 354 13.1 101990 40
2011-05-17 14:11 51°28.665 2°58.133 11.5 359 13.1 102000 41
2011-05-17 14:12 51°28.619 2°58.166 8.5 357 13.1 101990 39
2011-05-17 14:13 51°28.58 2°58.194 11.4 358 13.2 101980 41
2011-05-17 14:14 51°28.548 2°58.219 11.3 356 13.2 101990 41
2011-05-17 14:15 51°28.517 2°58.249 6.7 4 13.2 101980 40
2011-05-17 14:16 51°28.485 2°58.291 3.9 4 13.2 101990 40
2011-05-17 14:17 51°28.451 2°58.335 8.2 4 13.2 101990 41
2011-05-17 14:18 51°28.418 2°58.377 4.4 5 13.2 101990 40
2011-05-17 14:19 51°28.387 2°58.415 7.8 1 13.2 101990 41
2011-05-17 14:20 51°28.359 2°58.438 9.8 354 13.2 101990 39
2011-05-17 14:21 51°28.334 2°58.437 9.5 341 13.1 101980 40
2011-05-17 14:22 51°28.327 2°58.368 5.4 316 13.2 101990 41
2011-05-17 14:23 51°28.39 2°58.303 9.7 246 13.3 101970 41
2011-05-17 14:24 51°28.48 2°58.252 10.4 31 13.4 101980 41
2011-05-17 14:25 51°28.549 2°58.174 12.1 39 13.4 101980 40
2011-05-17 14:26 51°28.599 2°58.079 10.5 39 13.4 101980 40
2011-05-17 14:27 51°28.627 2°57.977 8.4 323 13.4 101970 40
2011-05-17 14:28 51°28.631 2°57.879 9.1 330 13.4 101980 38
2011-05-17 14:29 51°28.633 2°57.775 9.4 325 13.4 101980 39
2011-05-17 14:30 51°28.652 2°57.665 9.8 320 13.4 101980 41
2011-05-17 14:31 51°28.693 2°57.556 4.8 316 13.4 101960 41
2011-05-17 14:32 51°28.734 2°57.453 5.4 320 13.5 101960 41
2011-05-17 14:33 51°28.743 2°57.346 12.3 333 13.4 101970 39
2011-05-17 14:34 51°28.64 2°57.247 12.4 347 13.4 101960 40
2011-05-17 14:35 51°28.464 2°57.162 13.5 350 13.3 101950 40
2011-05-17 14:36 51°28.287 2°57.1 6.8 346 13.3 101960 39
2011-05-17 14:37 51°28.111 2°57.015 13.1 348 13.2 101950 41
2011-05-17 14:38 51°27.924 2°56.985 12.7 351 13.2 101960 40
2011-05-17 14:39 51°27.735 2°56.972 12.2 350 13.1 101950 41
2011-05-17 14:40 51°27.547 2°56.927 14.5 348 13.2 101960 41
2011-05-17 14:41 51°27.363 2°56.856 12.1 348 13.1 101960 41
2011-05-17 14:42 51°27.178 2°56.793 13 349 13.1 101950 41
2011-05-17 14:43 51°26.992 2°56.742 13.6 346 13.2 101940 40
2011-05-17 14:44 51°26.806 2°56.676 11.4 349 13.2 101960 40
2011-05-17 14:45 51°26.62 2°56.608 11.5 350 13.1 101950 40
2011-05-17 14:46 51°26.431 2°56.542 14.7 347 13.2 101960 41
2011-05-17 14:47 51°26.246 2°56.476 11 347 13.2 101950 41
2011-05-17 14:48 51°26.06 2°56.403 12.9 348 13.2 101950 41
2011-05-17 14:49 51°25.874 2°56.339 12.5 349 13.2 101960 41
2011-05-17 14:50 51°25.691 2°56.271 15.1 348 13.2 101950 40
2011-05-17 14:51 51°25.502 2°56.194 4.4 351 13.2 101950 41
2011-05-17 14:52 51°25.315 2°56.129 13.1 348 13.2 101960 39
2011-05-17 14:53 51°25.13 2°56.061 12.6 351 13.2 101950 41
2011-05-17 14:54 51°24.935 2°55.991 11 350 13.2 101950 41
2011-05-17 14:55 51°24.751 2°55.912 13.5 348 13.2 101950 41
2011-05-17 14:56 51°24.558 2°55.841 11.4 348 13.2 101940 40
2011-05-17 14:57 51°24.367 2°55.778 11.6 350 13.2 101940 40
2011-05-17 14:58 51°24.182 2°55.704 11.8 349 13.2 101950 40
2011-05-17 14:59 51°23.989 2°55.637 11.3 351 13.2 101950 41
2011-05-17 15:00 51°23.801 2°55.558 11.5 349 13.2 101960 39
2011-05-17 15:01 51°23.616 2°55.475 6.5 348 13.2 101960 41
2011-05-17 15:02 51°23.43 2°55.392 12.3 348 13.3 101950 41
2011-05-17 15:03 51°23.246 2°55.313 12.4 348 13.3 101950 41
2011-05-17 15:04 51°23.055 2°55.232 6.8 348 13.2 101960 40
2011-05-17 15:05 51°22.864 2°55.158 13.2 347 13.3 101960 40
2011-05-17 15:06 51°22.672 2°55.079 11.5 349 13.4 101960 41
2011-05-17 15:07 51°22.479 2°54.982 5.6 347 13.3 101950 40
2011-05-17 15:08 51°22.291 2°54.893 6.2 348 13.4 101960 39
2011-05-17 15:09 51°22.094 2°54.815 11.3 348 13.4 101960 41
2011-05-17 15:10 51°21.908 2°54.724 9.9 347 13.4 101970 41
2011-05-17 15:11 51°21.709 2°54.632 10.6 348 13.5 101960 42
2011-05-17 15:12 51°21.52 2°54.542 6.1 346 13.5 101960 41
2011-05-17 15:13 51°21.335 2°54.443 10.8 345 13.5 101960 41
2011-05-17 15:14 51°21.142 2°54.352 10 348 13.6 101960 41
2011-05-17 15:15 51°20.956 2°54.258 6.3 345 13.6 101970 41
2011-05-17 15:16 51°20.765 2°54.152 13.5 346 13.7 101960 39
2011-05-17 15:17 51°20.578 2°54.061 14.5 347 13.7 101960 41
2011-05-17 15:18 51°20.387 2°53.957 12.4 345 13.8 101960 40
2011-05-17 15:19 51°20.203 2°53.841 12.9 345 14 101960 40
2011-05-17 15:20 51°20.011 2°53.753 12.8 348 14 101950 39
2011-05-17 15:21 51°19.818 2°53.661 6.3 346 14.1 101960 40
2011-05-17 15:22 51°19.634 2°53.552 11.7 345 14.1 101950 39
2011-05-17 15:23 51°19.447 2°53.425 10.2 344 14.1 101950 38
2011-05-17 15:24 51°19.263 2°53.311 11.5 349 14.2 101950 38
2011-05-17 15:25 51°19.07 2°53.203 6.1 347 14.2 101950 40
2011-05-17 15:26 51°18.882 2°53.086 10.1 346 14.2 101960 39
2011-05-17 15:27 51°18.694 2°52.965 12.1 345 14.2 101960 40
2011-05-17 15:28 51°18.51 2°52.848 11.7 349 14.2 101950 39
2011-05-17 15:29 51°18.313 2°52.756 11.9 348 14.2 101950 39
2011-05-17 15:30 51°18.115 2°52.688 11.1 352 14.2 101950 40
2011-05-17 15:31 51°17.916 2°52.644 11.3 352 14.2 101950 40
2011-05-17 15:32 51°17.721 2°52.603 10.3 350 14.2 101960 38
2011-05-17 15:33 51°17.518 2°52.571 10.1 353 14.3 101960 39
2011-05-17 15:34 51°17.314 2°52.592 11.2 359 14.3 101960 38
2011-05-17 15:35 51°17.12 2°52.673 11.7 -999 14.3 101950 38
2011-05-17 15:36 51°16.926 2°52.768 9.8 1 14.3 101950 38
2011-05-17 15:37 51°16.746 2°52.921 3.8 6 14.3 101960 38
2011-05-17 15:38 51°16.56 2°53.057 4.2 3 14.3 101970 37
2011-05-17 15:39 51°16.362 2°53.167 10.8 1 14.4 101970 39
2011-05-17 15:40 51°16.17 2°53.264 8.2 2 14.4 101960 38
2011-05-17 15:41 51°15.974 2°53.382 6.2 6 14.4 101960 39
2011-05-17 15:42 51°15.785 2°53.526 8.9 4 14.4 101970 39
2011-05-17 15:43 51°15.6 2°53.677 9.1 9 14.4 101970 39
2011-05-17 15:44 51°15.432 2°53.87 7.8 8 14.5 101970 39
2011-05-17 15:45 51°15.259 2°54.07 5.5 6 14.5 101980 40
2011-05-17 15:46 51°15.102 2°54.276 5.7 2 14.5 101980 39
2011-05-17 15:47 51°14.944 2°54.471 5.6 6 14.5 101980 39
2011-05-17 15:48 51°14.778 2°54.663 3.9 4 14.5 101980 38
2011-05-17 15:49 51°14.619 2°54.852 4.9 11 14.6 101980 39
2011-05-17 15:50 51°14.471 2°55.048 6.1 12 14.6 101980 39
2011-05-17 15:51 51°14.316 2°55.231 5.9 12 14.6 101980 40
2011-05-17 15:52 51°14.157 2°55.384 4.1 7 14.6 101970 40
2011-05-17 15:53 51°14.013 2°55.494 5.7 352 14.7 101970 39
2011-05-17 15:54 51°13.889 2°55.584 3 4 14.8 101980 38
2011-05-17 15:55 51°13.797 2°55.658 0.2 37 15 101970 39
2011-05-17 15:56 51°13.723 2°55.769 -999 13 15.2 101980 36
2011-05-17 15:57 51°13.672 2°55.88 -999 30 15.3 101970 38
2011-05-17 15:58 51°13.636 2°55.974 -999 32 15.4 101970 38
2011-05-17 15:59 51°13.619 2°56.051 -999 36 15.4 101970 37